Regional Weather Roundup
Issued by NWS

Home | Current Version | Previous Version | Text Only | Print | Product List | Glossary Off
Versions: 1 2 3 4 5 6 7 8 9 10 11 12 13 14 15 16 17 18 19 20 21 22 23 24 25 26 27 28 29 30 31 32 33 34 35 36 37 38 39 40 41 42 43 44 45 46 47 48 49 50

000
ASUS43 KMKX 230424
RWRWI

WISCONSIN REGIONAL WEATHER ROUNDUP
NATIONAL WEATHER SERVICE MILWAUKEE/SULLIVAN WI
1100 PM CDT FRI MAY 22 2015

NOTE: "FAIR" INDICATES FEW OR NO CLOUDS BELOW 12,000 FEET WITH NO
SIGNIFICANT WEATHER AND/OR OBSTRUCTIONS TO VISIBILITY.

WIZ001-002-006>008-014>016-023>028-230500-
NORTHWEST WISCONSIN

CITY           SKY/WX    TMP DP  RH WIND       PRES   REMARKS
SUPERIOR ARPT  CLEAR     37  35  90 CALM      30.20S
ASHLAND        CLEAR     55  35  47 S7        30.18S
HAYWARD        CLEAR     49  38  65 CALM      30.21S
SIREN          CLEAR     50  43  74 CALM      30.21S
CUMBERLAND     PTCLDY    54  39  58 CALM      30.22S
RICE LAKE      PTCLDY    51  45  81 CALM      30.23S
CHETEK         PTCLDY    49  43  78 CALM      30.22S
LADYSMITH      PTCLDY    49  44  83 CALM      30.25R
EAU CLAIRE     MOCLDY    50  39  66 CALM      30.21S
MENOMONIE      MOCLDY    56  44  62 CALM      30.22S
NEW RICHMOND   MOCLDY    56  42  58 SE3       30.22S
OSCEOLA        PTCLDY    52  42  68 CALM      30.23S
$$

WIZ003>005-009-010-017-018-230500-
NORTH CENTRAL WISCONSIN

CITY           SKY/WX    TMP DP  RH WIND       PRES   REMARKS
MANITOWISH WTR CLEAR     43  36  78 CALM      30.22S
ARBOR VITAE    CLEAR     46  34  64 CALM      30.23S
WOODRUFF       CLEAR     46  34  64 CALM      30.23S
RHINELANDER    CLEAR     41  33  73 CALM      30.24R
EAGLE RIVER    CLEAR     42  31  65 CALM      30.23R
LAND O LAKES   CLEAR     38  32  77 CALM      30.23S
PHILLIPS       CLEAR     45  39  80 CALM      30.22S
TOMAHAWK       CLEAR     41  35  78 CALM      30.24S
MEDFORD        CLEAR     47  38  71 S3        30.24S
MERRILL        CLEAR     46  39  78 CALM      30.25R
$$

WIZ029-030-035-036-043>047-230500-
CENTRAL WISCONSIN

CITY           SKY/WX    TMP DP  RH WIND       PRES   REMARKS
WAUSAU         CLEAR     55  41  59 E3        30.22S
MOSINEE        PTCLDY    52  37  58 CALM      30.25S
MARSHFIELD     PTCLDY    54  39  57 CALM      30.24S
STEVENS POINT  PTCLDY    46  38  74 CALM      30.25S
WAUPACA        PTCLDY    54  36  49 SE5       30.26R HAZE
WAUTOMA        MOCLDY    56  39  52 CALM      30.26R
WISC RAPIDS    PTCLDY    49  36  61 CALM      30.25R
CAMP DOUGLAS   MOCLDY    48  47  98 CALM      30.22S
$$

WIZ011>013-019>022-031-037>040-048>050-230500-
NORTHEAST WISCONSIN

CITY           SKY/WX    TMP DP  RH WIND       PRES   REMARKS
ANTIGO         CLEAR     46  37  69 SE6       30.25S
SHAWANO        CLEAR     51  37  58 CALM      30.26R
OCONTO         CLEAR     42  34  72 CALM      30.27R
STURGEON BAY   CLEAR     46  21  36 S9        30.30S
GREEN BAY      CLEAR     48  31  51 S7        30.26S
MANITOWOC      PTCLDY    47  26  44 S6        30.28S
APPLETON       PTCLDY    52  34  50 S8        30.26S
CLINTONVILLE   PTCLDY    52  36  54 SE3       30.25R
OSHKOSH        MOCLDY    49  28  44 S8        30.26S
$$

WIZ032>034-041-042-053>061-230500-
SOUTHWEST WISCONSIN

CITY           SKY/WX    TMP DP  RH WIND       PRES   REMARKS
LA CROSSE      CLOUDY    57  44  62 E3        30.22R
SPARTA         MOCLDY    47  42  83 CALM      30.24S
VIROQUA        CLOUDY    59  35  40 E3        30.23S
BOSCOBEL       CLOUDY    53  45  74 CALM      30.23R
PRAIRIE DU CHI CLOUDY    58  44  60 CALM      30.22S
PLATTEVILLE    CLOUDY    61  41  47 SE7       30.24S
$$

WIZ056-057-062-063-064-067-068-230500-
SOUTH CENTRAL WISCONSIN

CITY           SKY/WX    TMP DP  RH WIND       PRES   REMARKS
REEDSBURG      MOCLDY    53  44  73 CALM      30.24R
BARABOO/DELLS  MOCLDY    56  38  50 SE6       30.24S
LONE ROCK      CLOUDY    54  46  74 CALM      30.23R
MINERAL POINT  CLOUDY    63  37  39 SE5       30.24S
MADISON        CLOUDY    57  34  41 SE9       30.27R
MIDDLETON      CLOUDY    60  31  33 SE8       30.27R
WATERTOWN      MOCLDY    49  28  42 SE3       30.27S
MONROE         CLOUDY    55  41  58 E6        30.26R
JANESVILLE     CLOUDY    54  32  43 SE5       30.28R
$$

WIZ051-052-058>065-066-070>072-230500-
SOUTHEAST WISCONSIN

CITY           SKY/WX    TMP DP  RH WIND       PRES   REMARKS
MILWAUKEE      MOCLDY    49  27  42 S6        30.29S
WAUKESHA       MOCLDY    46  27  46 S3        30.30S
MILWAUKEE/TIMM MOCLDY    48  25  40 CALM      30.29S
RACINE         CLOUDY    46  32  58 S5        30.31S
BURLINGTON     CLOUDY    46  28  49 CALM      30.29S
KENOSHA        CLOUDY    47  31  53 SE6       30.29F
FOND DU LAC    MOCLDY    50  25  37 S6        30.27S
SHEBOYGAN      MOCLDY    43  28  55 SW5       30.28S
WEST BEND      MOCLDY    45  28  53 CALM      30.28S
JUNEAU         MOCLDY    49  30  47 SE7       30.28S
$$

LSZ147-162-230500-
LAKE SUPERIOR

STATION/POSITION TIME  TEMP    WIND        PRES    WAVE
                       AIR SEA DIR/SP/G            HT/PER
                 (UTC) (F)     (DEG/KT/KT) (MB)    (FT/S)
W MID LAKE BUOY  0350   40 36   30/  4/  4   N/A     0
DEVILS ISLAND    0400   42      70/  2/  2   N/A
PORT WING        0340   41     210/  4/  5   N/A
SAXON HARBOR     0200   57     200/  4/  5   N/A
$$

LMZ867-665-643>646-230500-
LAKE MICHIGAN

STATION/POSITION TIME  TEMP    WIND        PRES    WAVE
                       AIR SEA DIR/SP/G            HT/PER
                 (UTC) (F)     (DEG/KT/KT) (MB)    (FT/S)
CHAMBERS ISLAND  0300   44     130/  3/  5   N/A
N MID LAKE BUOY  0350   41 36  220/  6/  8   N/A     0
NORTHPORT PIER   0300   47     200/  2/  5   N/A
SISTER BAY       0302   44        CALM       N/A
KEWAUNEE LAKESHO 0300   46     190/  9/ 10   N/A
SHEBOYGAN LAKESH 0400   49     210/  8/ 10   N/A
PORT WASHINGTON  0300   49      CALM  /  4   N/A
ATWATER BUOY     0400   48 45  180/  6/  8   N/A
MILWAUKEE LAKESH 0400   51     210/  4/  4   N/A
S MID LAKE BUOY  0350   43 38  120/  8/  8   N/A     0
KENOSHA   LAKESH 0400   49     170/  8/  9   N/A
$$

TC  - TEMPERATURE IN CELSIUS
VSB - VISIBILITY IN STATUTE MILES
WCI - WIND CHILL INDEX
HX  - HEAT INDEX




USA.gov is the U.S. government's official web portal to all federal, state and local government web resources and services.